Wind_Speed
17 16 16 16 17 18 19 20 20 20 20 21 21 20 19 17 16 16 14 14 14 14 13 12 11 12 12 12 11 11 10 9 9 10 10 10 10 10 10 10 11 11 14
19 19 19 20 20 21 22 22 22 22 22 23 23 21 21 19 17 17 17 17 18 18 17 16 15 16 16 16 15 15 14 13 12 12 12 12 13 12 12 12 12 12 12
20 21 22 22 23 23 22 22 23 24 24 24 24 23 22 21 19 18 18 19 20 21 21 20 19 19 19 19 17 17 17 16 15 14 15 15 15 14 14 14 14 13 12
21 22 23 24 24 24 23 23 24 25 25 24 24 22 22 22 21 20 21 21 22 22 23 23 22 22 21 21 20 19 18 16 15 15 16 17 16 15 15 15 14 14 14
25 25 26 26 26 26 25 25 26 26 25 25 24 23 23 23 23 23 23 24 24 24 24 25 24 24 24 23 23 22 20 18 15 15 18 18 17 15 16 16 16 15 15
25 26 26 27 27 27 27 27 27 27 27 27 26 26 26 27 26 26 25 25 25 25 24 25 25 24 24 23 23 23 22 21 17 17 18 19 17 16 17 16 16 15 14
24 26 28 27 27 27 28 28 28 28 28 29 29 29 29 29 29 28 27 26 26 25 25 24 25 24 24 24 24 24 24 23 21 20 19 19 18 17 16 15 15 15 14
26 26 28 28 29 30 31 31 31 31 32 32 32 33 33 32 31 30 29 28 28 27 27 26 26 26 26 26 27 28 27 26 25 22 21 21 20 19 17 16 15 14 14
31 30 31 31 33 34 34 35 36 36 36 36 35 35 34 34 33 31 30 30 29 30 29 29 29 29 30 30 31 31 30 28 26 24 24 24 22 20 18 17 16 15 14
35 34 34 34 34 34 34 35 36 36 36 36 36 35 35 33 32 30 29 29 29 29 30 30 30 30 30 30 30 29 29 28 27 25 25 25 25 23 21 19 17 16 15
35 34 33 33 30 30 30 32 33 34 35 36 36 35 34 33 31 29 29 28 29 29 29 29 30 30 30 30 29 28 27 27 27 25 25 26 27 25 23 22 20 19 18
32 31 30 31 28 27 28 30 32 33 34 35 36 35 35 34 33 31 30 30 30 30 30 30 30 31 31 31 31 29 28 28 27 26 25 26 28 27 26 25 23 22 21
29 30 30 31 32 31 30 31 31 33 35 37 37 37 38 38 37 36 34 34 33 33 32 32 31 31 31 31 30 30 30 30 29 28 27 28 30 30 29 29 28 26 26
32 32 33 35 36 37 36 35 35 35 36 38 39 40 41 42 41 39 37 37 37 37 37 36 36 35 35 34 33 32 32 32 32 32 31 31 33 33 33 33 32 32 31
36 35 35 38 39 40 41 40 40 40 40 41 41 41 42 43 43 42 41 40 40 40 40 39 39 38 39 39 38 38 38 37 37 37 37 37 36 36 37 37 36 36 35
35 35 36 38 41 43 43 44 43 43 43 44 45 45 45 44 44 44 44 44 44 44 43 42 41 41 40 40 40 39 40 40 41 42 42 44 43 42 42 42 42 41 41
38 39 39 39 40 42 44 45 45 45 45 45 46 47 47 47 47 47 47 47 47 47 46 45 45 45 44 44 44 43 43 43 42 41 41 42 43 44 45 45 45 45 45
42 44 45 46 46 47 48 50 51 51 52 52 52 52 53 53 53 53 53 53 53 52 51 50 49 49 48 48 48 47 47 46 46 45 44 44 43 43 44 44 44 43 42
45 47 48 48 49 51 52 54 55 55 56 57 57 58 59 59 60 59 59 59 59 59 58 57 55 54 54 53 52 52 51 51 50 49 48 48 47 47 47 48 48 47 46
46 47 48 49 50 52 53 54 56 58 60 61 60 61 62 62 63 64 65 65 64 64 63 63 62 61 61 60 59 58 57 56 55 54 54 53 52 52 52 52 52 51 51
49 51 54 58 60 59 58 58 59 60 61 62 63 63 63 63 62 63 65 68 68 67 67 67 66 66 66 66 65 63 63 61 59 59 59 58 57 56 55 55 55 55 54
57 58 59 60 62 63 65 67 64 63 64 65 66 67 68 67 66 65 65 66 67 67 67 67 67 66 66 66 67 67 66 66 65 64 63 61 60 59 58 58 57 57 57
66 64 64 66 68 69 72 75 75 71 70 71 71 71 72 72 73 72 71 70 71 70 70 69 68 67 65 63 64 65 66 67 66 66 65 64 63 62 60 60 60 60 59
69 68 68 71 74 76 78 79 80 77 75 75 76 75 75 76 77 79 78 77 76 76 76 75 74 72 71 67 65 65 65 64 64 64 64 64 62 62 62 61 60 59 58
75 76 77 77 78 80 82 83 81 80 79 77 77 77 77 77 78 80 82 82 81 80 80 80 78 77 77 74 72 70 67 66 64 63 62 62 62 63 63 63 62 62 60
83 83 81 81 81 82 83 82 79 75 71 69 69 70 71 72 74 77 80 82 82 83 81 81 81 80 80 77 75 75 73 72 71 69 67 66 65 64 64 64 64 64 64
Wind_Direction
244 248 255 263 270 276 281 286 289 291 294 295 292 287 282 279 279 278 274 268 263 261 260 262 262 259 258 263 269 272 273 271 275 279 278 273 266 258 252 250 248 244 240
249 254 261 266 271 276 281 284 285 287 289 291 288 281 272 269 271 273 271 269 266 264 263 262 261 262 264 266 266 267 271 271 271 273 271 269 267 264 258 250 246 244 240
254 259 264 268 271 275 278 281 284 285 285 285 283 277 267 261 261 265 267 265 264 264 262 262 263 264 265 265 265 267 269 271 273 275 274 268 264 266 264 257 250 246 243
259 261 264 267 271 274 276 278 280 281 282 281 277 270 262 260 261 263 266 265 264 263 262 260 260 262 264 265 265 266 268 267 271 279 280 272 264 261 262 261 255 250 246
262 263 266 268 271 273 275 277 278 279 278 275 269 263 260 261 264 267 268 266 263 261 259 259 258 258 260 260 262 263 263 263 267 274 276 271 265 260 257 254 252 249 247
269 268 269 271 274 277 278 277 276 275 274 271 266 264 264 265 267 267 267 265 263 261 259 257 256 256 256 256 255 255 257 260 261 264 267 266 261 256 249 246 246 246 245
270 272 273 274 275 277 277 276 274 273 271 268 266 264 265 266 267 267 267 265 262 259 256 254 254 253 253 252 250 252 256 259 260 258 257 258 258 252 248 248 249 249 248
267 267 271 275 277 277 277 278 277 274 271 268 267 267 267 267 267 266 264 262 260 257 254 251 251 251 252 251 252 255 258 258 256 250 248 248 250 248 246 246 245 244 244
277 279 279 279 280 280 278 276 274 272 270 269 268 268 268 268 266 264 262 260 258 256 253 251 250 251 252 254 256 257 257 257 254 247 244 244 244 243 241 240 240 240 240
285 285 284 283 283 282 279 275 271 268 267 266 265 264 263 261 260 260 258 257 255 254 253 253 253 253 253 255 257 258 258 257 253 247 243 243 242 240 239 238 242 245 245
285 284 283 281 280 278 278 276 271 266 263 262 262 260 257 254 253 253 253 252 251 252 253 254 254 254 253 254 255 256 257 255 254 248 244 244 243 240 239 241 243 246 250
282 282 281 281 279 274 272 272 272 270 267 265 263 259 255 253 252 250 249 250 252 253 253 253 253 253 253 254 254 253 252 252 252 249 246 244 244 240 237 240 243 247 251
279 278 277 276 276 273 268 266 266 267 267 266 264 261 257 254 252 250 249 250 251 251 251 252 251 252 251 251 252 251 250 250 249 248 245 245 245 242 239 239 243 247 251
278 275 274 272 271 270 269 267 265 263 262 263 263 263 262 260 257 254 250 249 249 250 250 250 249 250 251 251 250 250 249 248 248 249 247 245 245 246 246 247 247 248 251
282 279 276 274 272 272 271 269 267 264 260 259 258 258 260 262 261 260 258 254 252 252 253 253 253 253 253 253 253 253 253 251 249 250 251 250 249 249 250 251 252 252 254
286 282 280 278 278 278 276 274 271 268 266 263 261 259 258 258 259 260 259 258 257 255 255 255 256 256 256 256 256 256 256 254 252 252 252 253 253 253 253 254 255 255 257
286 284 282 281 280 279 279 277 275 274 272 269 265 262 261 260 259 258 258 258 257 256 255 254 253 253 254 255 256 255 255 254 254 253 253 254 254 254 255 256 257 257 257
281 280 280 279 277 276 274 274 274 273 273 272 270 268 266 263 262 260 258 257 256 255 254 254 254 254 254 254 255 255 256 255 254 253 252 253 254 255 256 256 257 256 257
285 282 280 278 277 276 274 273 273 273 271 270 269 268 267 266 264 262 260 257 255 254 253 253 253 254 255 255 255 255 255 256 254 254 253 253 253 254 255 257 257 257 256
290 286 283 281 281 281 278 276 275 274 271 269 269 269 267 266 264 263 261 259 257 255 254 253 252 253 253 253 253 254 253 252 253 253 254 254 253 253 254 255 257 257 257
288 284 281 280 281 279 275 275 275 273 270 269 269 269 268 266 265 265 264 262 261 259 257 255 254 254 254 254 253 252 251 250 250 250 252 252 253 253 254 255 255 256 256
288 285 282 280 279 276 274 274 273 271 268 265 265 268 269 269 267 264 263 263 262 260 259 257 255 255 254 254 254 253 252 251 249 249 250 250 251 253 254 255 255 255 255
292 289 285 282 279 276 275 275 274 273 270 268 267 266 265 265 266 265 264 263 262 261 259 257 255 254 253 253 254 253 251 250 250 249 248 249 249 250 251 251 252 254 255
294 292 288 286 284 283 282 282 282 281 277 273 271 270 269 267 266 265 263 262 262 261 260 258 256 255 253 252 252 252 251 250 248 247 246 247 247 248 249 249 250 251 252
294 290 288 286 284 284 283 283 283 283 281 279 277 275 273 270 267 265 264 262 261 260 259 258 256 254 253 252 252 251 251 250 248 246 245 244 245 245 247 248 248 248 246
290 287 286 286 286 286 287 289 288 286 283 281 278 276 273 269 265 263 261 260 260 259 258 256 254 253 252 251 251 250 249 249 248 247 246 246 245 245 246 247 248 248 248
Height
5868 5868 5868 5867 5866 5866 5865 5865 5864 5864 5863 5862 5862 5862 5861 5860 5860 5860 5859 5859 5859 5860 5860 5861 5861 5861 5861 5862 5862 5862 5862 5862 5862 5861 5861 5860 5860 5860 5860 5861 5862 5862 5863
5866 5865 5865 5864 5864 5863 5862 5862 5861 5861 5860 5859 5858 5857 5858 5857 5857 5856 5856 5856 5856 5856 5856 5857 5858 5858 5859 5859 5860 5859 5860 5860 5859 5859 5859 5859 5858 5858 5858 5859 5859 5860 5861
5862 5861 5861 5860 5860 5859 5858 5858 5857 5857 5856 5854 5853 5853 5854 5854 5853 5853 5852 5852 5853 5853 5853 5853 5854 5854 5855 5856 5856 5856 5856 5857 5856 5856 5856 5856 5856 5856 5856 5856 5856 5857 5858
5857 5856 5856 5855 5855 5854 5853 5853 5852 5852 5851 5850 5849 5849 5850 5849 5849 5849 5848 5848 5848 5848 5849 5849 5849 5850 5850 5851 5851 5852 5853 5853 5853 5853 5853 5852 5853 5853 5853 5853 5853 5854 5855
5851 5851 5851 5850 5850 5849 5848 5847 5847 5847 5846 5846 5845 5845 5845 5844 5844 5844 5843 5843 5843 5843 5843 5844 5844 5845 5846 5846 5847 5848 5848 5849 5850 5849 5849 5849 5849 5849 5849 5850 5850 5850 5851
5847 5847 5847 5846 5846 5844 5843 5842 5842 5841 5840 5840 5840 5840 5839 5838 5838 5838 5838 5837 5837 5837 5838 5838 5839 5840 5840 5842 5843 5843 5844 5844 5846 5846 5845 5845 5845 5846 5846 5846 5847 5847 5848
5844 5843 5841 5841 5840 5839 5837 5836 5835 5835 5834 5833 5834 5834 5833 5832 5832 5831 5831 5831 5831 5831 5832 5833 5834 5835 5835 5836 5838 5839 5839 5840 5842 5842 5842 5841 5842 5843 5843 5843 5843 5844 5845
5839 5838 5837 5835 5834 5833 5831 5830 5829 5828 5828 5827 5827 5826 5826 5826 5825 5825 5825 5825 5825 5825 5826 5827 5828 5829 5829 5830 5832 5833 5834 5835 5837 5837 5838 5838 5838 5839 5839 5840 5840 5841 5841
5832 5832 5831 5830 5828 5827 5825 5824 5822 5821 5820 5820 5819 5819 5818 5818 5818 5818 5818 5818 5818 5819 5819 5820 5822 5823 5824 5824 5825 5826 5828 5829 5830 5831 5833 5833 5834 5835 5835 5836 5837 5837 5838
5826 5824 5822 5822 5820 5819 5817 5816 5814 5813 5812 5811 5811 5810 5810 5810 5810 5810 5810 5810 5811 5812 5812 5814 5815 5816 5817 5818 5819 5820 5821 5822 5823 5825 5826 5827 5829 5830 5831 5832 5833 5834 5835
5818 5816 5814 5813 5813 5811 5809 5808 5806 5805 5804 5803 5803 5802 5801 5802 5802 5802 5802 5802 5803 5804 5805 5806 5807 5808 5810 5810 5811 5813 5814 5815 5817 5819 5821 5822 5823 5825 5826 5827 5828 5830 5831
5810 5809 5807 5805 5805 5805 5803 5801 5799 5798 5797 5796 5795 5795 5795 5795 5794 5795 5795 5795 5796 5797 5797 5798 5800 5801 5802 5803 5804 5806 5808 5809 5811 5813 5816 5817 5818 5820 5821 5822 5823 5825 5826
5806 5804 5802 5800 5798 5797 5796 5795 5793 5791 5790 5789 5788 5787 5787 5786 5786 5786 5788 5788 5788 5788 5789 5791 5792 5793 5794 5796 5797 5799 5801 5802 5804 5806 5809 5811 5812 5814 5815 5816 5817 5819 5820
5799 5797 5796 5793 5791 5789 5788 5787 5785 5783 5781 5780 5779 5779 5778 5778 5778 5778 5779 5779 5779 5779 5781 5782 5783 5784 5786 5787 5789 5791 5793 5795 5797 5799 5801 5803 5805 5807 5809 5810 5812 5813 5815
5791 5789 5788 5785 5783 5780 5778 5777 5775 5774 5773 5771 5770 5769 5768 5768 5768 5769 5770 5770 5771 5771 5771 5772 5774 5775 5777 5778 5780 5782 5784 5787 5789 5790 5792 5794 5797 5799 5801 5803 5805 5807 5809
5782 5780 5779 5776 5773 5771 5769 5767 5765 5764 5763 5761 5760 5758 5758 5757 5757 5758 5759 5759 5760 5760 5761 5763 5764 5765 5767 5768 5771 5773 5775 5777 5779 5781 5783 5785 5788 5791 5792 5794 5796 5799 5800
5773 5770 5768 5766 5763 5760 5758 5756 5754 5752 5750 5749 5748 5747 5746 5746 5745 5745 5745 5746 5747 5748 5750 5751 5753 5754 5756 5758 5760 5762 5764 5766 5769 5771 5773 5775 5778 5780 5783 5785 5786 5789 5791
5765 5761 5757 5754 5751 5748 5746 5743 5741 5739 5737 5735 5734 5733 5732 5732 5732 5732 5732 5732 5733 5735 5737 5738 5740 5742 5744 5746 5748 5750 5752 5755 5757 5760 5763 5765 5768 5770 5772 5774 5776 5778 5781
5757 5752 5747 5743 5739 5735 5732 5729 5726 5724 5722 5720 5718 5717 5716 5715 5715 5715 5716 5717 5717 5719 5722 5724 5726 5728 5730 5733 5735 5737 5739 5742 5745 5747 5751 5753 5756 5760 5761 5763 5765 5768 5770
5746 5741 5736 5732 5727 5722 5718 5715 5712 5709 5706 5704 5702 5701 5699 5698 5697 5697 5699 5700 5701 5703 5705 5708 5710 5712 5715 5717 5720 5723 5726 5728 5731 5733 5736 5739 5743 5746 5749 5751 5753 5756 5759
5731 5726 5720 5715 5711 5706 5702 5699 5696 5693 5690 5687 5685 5683 5682 5680 5679 5679 5680 5682 5683 5685 5687 5689 5693 5695 5698 5700 5703 5706 5709 5713 5717 5719 5721 5725 5728 5732 5735 5738 5741 5744 5748
5715 5709 5702 5696 5691 5686 5683 5679 5676 5674 5671 5669 5668 5666 5663 5661 5661 5662 5663 5663 5664 5666 5667 5670 5673 5676 5679 5682 5685 5688 5692 5697 5701 5704 5707 5711 5714 5717 5721 5725 5728 5731 5734
5694 5687 5682 5676 5671 5666 5661 5657 5654 5652 5648 5646 5645 5645 5643 5641 5641 5642 5643 5644 5645 5647 5649 5650 5654 5656 5660 5664 5666 5669 5673 5678 5682 5686 5691 5695 5698 5702 5705 5709 5713 5716 5719
5670 5664 5657 5652 5646 5640 5636 5632 5628 5624 5622 5621 5621 5622 5621 5618 5617 5618 5620 5621 5623 5625 5628 5630 5633 5636 5639 5645 5648 5651 5656 5660 5664 5668 5672 5676 5681 5685 5689 5693 5697 5701 5704
5647 5640 5632 5626 5620 5613 5608 5604 5601 5598 5593 5592 5592 5593 5593 5592 5591 5592 5594 5596 5599 5602 5604 5607 5611 5614 5617 5623 5627 5632 5638 5642 5646 5650 5654 5658 5663 5668 5672 5676 5681 5685 5689
5623 5614 5608 5603 5597 5590 5584 5579 5575 5572 5568 5566 5564 5564 5564 5564 5564 5563 5567 5571 5573 5576 5580 5583 5587 5590 5593 5600 5604 5610 5618 5622 5627 5631 5636 5640 5645 5650 5655 5660 5664 5668 5674